sat.trackr.live / text

‹ back to catalog

STARLINK-37100

NORAD 68230 · 2026-053Z

PAYLOAD ACTIVE UNKNOWN

§ Identity

Operator
Country
US
Launch date
2026-03-17
Launch site
AFWTR
Launch vehicle
Mass (kg)
RCS (m²)

Purposes: comms

External: N2YO · Heavens-Above · Gunter

§ Orbital elements

Epoch: 2026-05-25T04:01:52.042080Z

Period
93.91 min
Inclination
97.2866°
Eccentricity
0.0001654
Mean motion
15.33434012 rev/d
Perigee alt
464.4 km
Apogee alt
466.7 km
Semi-major
6,843.7 km
B*
1.7734e-4
RAAN
20.6954°
Arg perigee
92.3581°
Mean anomaly
267.7851°
Rev number
1,194

§ Raw data

STARLINK-371001 68230U 26053Z   26145.16796345  .00005652  00000+0  17734-3 0  99962 68230  97.2866  20.6954 0001654  92.3581 267.7851 15.33434012 11946

JSON: /api/v1/satellites/68230 · /tle

For live sub-satellite position, see the globe view (requires WebGL).

§ Visibility from observer

Set your observer location to see the next 7 days of passes ≥ 10°. The values pass through the URL so the page stays shareable.

No JS? Fill the form by hand. The geolocation button needs JavaScript.